Location: Novokuznetsk
(53.7500°N, 87.1000°E)
Time: 20:37:59
(UTC+06:00)

ISS - Pass Details

Date: 06 March 2021
Orbit: 418 x 422 km, 51.6° (Epoch: 16 April)

Event Time Altitude Azimuth Distance (km) Brightness Sun altitude
Exits shadow 06:01:46 10° 268° (W) 1,477 -1.7 -7.7°
Maximum altitude 06:04:45 32° 203° (SSW) 744 -2.7 -7.2°
Drops below altitude 10° 06:07:47 10° 139° (SE) 1,496 -0.3 -6.8°
Sets 06:09:59 0° 129° (SE) 2,358 1.0 -6.5°
